Other Public Products
Issued by NWS Grand Forks, ND

Home | Current Version | Previous Version | Graphics & Text | Print | Product List | Glossary On
Versions: 1 2 3 4 5 6 7 8 9 10 11 12 13 14 15 16 17 18 19 20 21 22 23 24 25 26 27 28 29 30 31 32 33 34 35 36 37 38 39 40 41 42 43 44 45 46 47 48 49 50
000
FPUS83 KFGF 232010
OPUFGF
PRAIRIE TO PINES WEATHER ROUNDUP
NATIONAL WEATHER SERVICE EASTERN NORTH DAKOTA/GRAND FORKS ND
300 PM CDT FRI JUN 23 2017

 **SATELLITE DATA USED TO AUGMENT SKY COVER AT AUTOMATED STATIONS**
 *****  WEATHER ACROSS EASTERN NORTH DAKOTA  *****

CITY           SKY/WX    TMP DP  RH WIND       PRES   REMARKS
GRAND FORKS    PTSUNNY   65  46  50 NW16G29   29.89R
GRAND FORKS AF FAIR      66  42  41 NW18G29   29.90R
GRAND CITY NWS NOT AVBL
BUXTON         NOT AVBL
DEVILS LAKE    PTSUNNY   61  41  47 NW21G31   29.95R
FARGO          CLOUDY    64  46  52 NW21G29   29.91R
WAHPETON ARPT  CLOUDY    63  45  51 NW17G23   29.93S
$$

 *****  WEATHER ACROSS CENTRAL AND WESTERN NORTH DAKOTA  *****

CITY           SKY/WX    TMP DP  RH WIND       PRES   REMARKS
JAMESTOWN      FAIR      65  38  36 NW25G36   29.96S
BISMARCK       PTSUNNY   67  37  33 NW23G35   30.05F
MINOT          CLOUDY    63  38  39 NW26G36   30.04R
MINOT AFB      PTSUNNY   61  37  39 NW30      30.02S
GARRISON         N/A     63  37  38 NW29G43   30.04S
WILLISTON      FAIR      67  32  27 NW24G36   30.12F
DICKINSON      FAIR      61  29  29 NW22G39   30.10F
HETTINGER      FAIR      63  30  28 NW22G32   30.14F
$$

 *****  OTHER OBSERVATIONS NORTHEAST NORTH DAKOTA  *****

CITY           SKY/WX    TMP DP  RH WIND       PRES   REMARKS
WALHALLA       NOT AVBL
LANGDON        CLOUDY    61  43  51 NW25      29.93R
CAVALIER       CLOUDY    61  45  55 NW18      29.89S
GRAFTON        MOCLDY    64  45  48 NW15G24   29.90S
CANDO          NOT AVBL
FORT TOTTEN      N/A     61  42  50 NW10      29.95S
ROLLA            N/A     55  41  58 NW20G31   29.98R
RUGBY          NOT AVBL
 ***** THE ABOVE OBSERVATIONS ARE NON NWS ARE NOT QUALITY
        CONTROLLED AND MAY MIS-REPORT RAIN FOR SNOW...
$$

 *****  OTHER OBSERVATIONS SOUTHEAST NORTH DAKOTA *****

CITY           SKY/WX    TMP DP  RH WIND       PRES   REMARKS
COOPERSTOWN    MOCLDY    63  41  45 NW16G30   29.94S
VALLEY CITY    MOCLDY    63  41  45 NW22G29   29.97R
OAKES          NOT AVBL
GWINNER        CLOUDY    64  46  52 NW21G26   29.96S
SHEYENNE NWR     N/A     64  46  50 NW15      29.95S
BUFFALO        NOT AVBL
WYNDMERE       NOT AVBL
 ***** THE ABOVE OBSERVATIONS ARE NON NWS ARE NOT QUALITY
       CONTROLLED AND MAY MIS-REPORT RAIN FOR SNOW...
$$

  *****  WEATHER ACROSS NORTHERN MINNESOTA  *****

CITY           SKY/WX    TMP DP  RH WIND       PRES   REMARKS
FLAG ISLAND    CLOUDY    59  54  82 NW18      29.78R
WARROAD        CLOUDY    57  54  88 W15G22    29.82R
ROSEAU           N/A     57  52  82 NW16G24   29.84R
HALLOCK        CLOUDY    57  48  72 NW14G20   29.88R
THF RVR FALLS  CLOUDY    57  49  74 NW20      29.89R
HALSTAD        NOT AVBL
FOSSTON        CLOUDY    57  48  72 NW17G25   29.89R
BAUDETTE       LGT RAIN  59  55  87 NW15G21   29.78R FOG
WASKISH        CLOUDY    59  55  88 W16G23    29.81R
CROOKSTON      CLOUDY    61  50  67 NW13      29.89
$$
  *****  WEATHER ACROSS CENTRAL AND WEST MINNESOTA  *****

CITY           SKY/WX    TMP DP  RH WIND       PRES   REMARKS
BEMIDJI        PTSUNNY   62  52  68 NW20G26   29.83R
PARK RAPIDS    PTSUNNY   64  52  64 W21G28    29.84R
WADENA         PTSUNNY   63  52  67 W13G18    29.86F
DETROIT LAKES  PTSUNNY   61  50  67 NW18      29.90S
MOORHEAD       PTSUNNY   63  46  55 NW18      29.91S
FERGUS FALLS   PTSUNNY   63  50  63 NW23G30   29.89S
ELBOW LAKE     CLOUDY    61  51  69 W18G24    29.92S
MORRIS MN      PTSUNNY   64  50  59 NW18G28   29.91S
STAPLES        RAIN      59  52  77 NW12G21   29.85R
WHEATON        PTSUNNY   64  46  52 NW15G23   29.95S
$$
  *****  WEATHER ELSEWHERE ACROSS MINNESOTA  *****

CITY           SKY/WX    TMP DP  RH WIND       PRES   REMARKS
DULUTH         FAIR      69  49  48 W17G24    29.71S
INTRNTL FALLS  PTSUNNY   67  48  50 W14G23    29.71F
ELY            LGT RAIN  61  54  77 NW5       29.70R
CLOQUET        CLOUDY    66  46  48 W14       29.74R
BRAINERD       PTSUNNY   63  55  75 W15G25    29.82S
HIBBING        LGT RAIN  59  50  72 NW21G32   29.74R
ALEXANDRIA     PTSUNNY   63  52  67 NW26      29.90S
SAINT CLOUD    PTSUNNY   70  54  56 NW18G28   29.82S
MINNEAPOLIS    PTSUNNY   73  51  46 NW20      29.80S
$$

  *****  WEATHER ACROSS SOUTH DAKOTA  *****

CITY           SKY/WX    TMP DP  RH WIND       PRES   REMARKS
SIOUX FALLS    CLOUDY    67  51  56 NW22G31   29.99R
BROOKINGS      CLOUDY    61  49  64 NW20G28   29.98S
WATERTOWN      CLOUDY    61  47  59 NW18G28   29.98S
HURON          PTSUNNY   69  45  41 NW22G30   30.01S
SISSETON         N/A     68  48  48 NW24G31   29.93S
ABERDEEN       FAIR      68  41  37 NW21G28   29.99F
MITCHELL       PTSUNNY   71  43  36 NW23G31   30.02F
PIERRE         FAIR      69  35  28 NW23G31   30.08S
MOBRIDGE       FAIR      69  32  25 NW29G36   30.03S
RAPID CITY     FAIR      68  34  28 N24G41    30.15F
$$

  *****  SOME WEATHER IN NEARBY STATES *****

CITY           SKY/WX    TMP DP  RH WIND       PRES   REMARKS
GLASGOW MT     FAIR      68  30  24 NW18G25   30.18F
GREAT FALLS MT FAIR      66  35  31 MISG      30.26F
CHEYENNE WY    PTSUNNY   62  39  42 S7        30.27S
SCOTTSBLUFF NE FAIR      72  33  24 NW12      30.19F
OMAHA NE       FAIR      74  53  48 NW16G24   29.99F
DES MOINES IA  PTSUNNY   73  52  47 NW21G29   29.90R
DAVENPORT IA   FAIR      79  55  43 W15G23    29.77S
CHICAGO IL     FAIR      82  45  27 NW14      29.70F
EAU CLAIRE WI  CLOUDY    69  51  52 NW15      29.75S
LA CROSSE WI   CLOUDY    73  53  49 NW14      29.77R
$$

  *****  SOME NATIONAL WEATHER *****

CITY           SKY/WX    TMP DP  RH WIND       PRES   REMARKS
LA GUARDIA NY  PTSUNNY   84  72  67 SW17G23   29.67F
RALEIGH NC     FAIR      90  71  53 SW20G29   29.90F HX  96
ATLANTA GA     FAIR      88  70  55 SW15G28   29.95F HX  93
NEW ORLEANS LA PTSUNNY   88  78  72 S14G24    29.91F HX 101
OKLAHOMA CITY  PTSUNNY   86  70  58 NE17G26   29.92R HX  90
ALBUQUERQUE NM PTSUNNY   96  20   6 VRB3G17   30.06F
SALT LAKE CITY FAIR      82  31  15 VRB7      30.15F
LOS ANGELES CA PTSUNNY   68  61  78 W17       29.92S
BOISE ID       FAIR      76  33  21 SW3       30.17F
SEATTLE WA     FAIR      77  50  38 N10G18    30.19F
$$

*** WEATHER ACROSS MANITOBA...SASKATCHEWAN AND ONTARIO ***
                ***ONTARIO***

CITY           SKY/WX    TMP DP  RH WIND       PRES   REMARKS
GERALDTON      PTSUNNY   66  46  48 N12G17    29.54S THUNDER
THUNDER BAY    PTSUNNY   68  50  52 NW16      29.59R
SIOUX LOOKOUT  MOSUNNY   66  50  55 W14       29.65R
TORONTO        CLOUDY    77  66  69 SW8       29.53F
BIG TROUT LK   RAIN      59  52  77 NE7G18    29.67R
PICKLE LAKE    LGT RAIN  63  48  59 NW12      29.62R
DRYDEN         PTSUNNY   66  52  59 N8G18     29.67R
KENORA         LGT RAIN  57  54  88 NW13G22   29.75R
$$
                *** MANITOBA***

CITY           SKY/WX    TMP DP  RH WIND       PRES   REMARKS
BRANDON        CLOUDY    54  41  62 NW21G30   29.96R
DAUPHIN        PTSUNNY   59  43  55 NW16G24   29.91S
ISLAND LAKE    MOSUNNY   61  50  67 N10G18    29.77S
PILOT MOUND      N/A     54  39  58 NW23G33     N/A
THE PAS        DRIZZLE   48  43  81 N16G23    29.95R
THOMPSON       PTSUNNY   57  39  51 NE13G22   29.92R
WINNIPEG       CLOUDY    55  48  76 NW23G29   29.87R
LYNN LAKE      CLOUDY    54  37  54 N12G21    30.03R
CHURCHILL      MOSUNNY   48  39  71 N13       29.99S
GILLAM         PTSUNNY   55  39  54 N21       29.91S
$$
                ***SASKATCHEWAN***

CITY           SKY/WX    TMP DP  RH WIND       PRES   REMARKS
ESTEVAN        CLOUDY    59  36  41 NW26G36   30.09S
KINDERSLEY     PTSUNNY   64  39  39 NW15G26   30.14F
LLOYDMINSTER   PTSUNNY   64  39  39 NW12G18   30.13F
PRINCE ALBERT  LGT RAIN  48  43  81 NE6       30.13R
REGINA         PTSUNNY   57  34  41 NW24G32   30.09S
YORKTON        MOSUNNY   55  41  58 NW20G31   30.00R



USA.gov is the U.S. government's official web portal to all federal, state and local government web resources and services.